Regional Weather Roundup
Issued by NWS

Home | Current Version | Previous Version | Text Only | Print | Product List | Glossary Off
Versions: 1 2 3 4 5 6 7 8 9 10 11 12 13 14 15 16 17 18 19 20 21 22 23 24 25 26 27 28 29 30 31 32 33 34 35 36 37 38 39 40 41 42 43 44 45 46 47 48 49 50

321
ASUS44 KJAN 181403
RWRMS

MISSISSIPPI HOURLY WEATHER ROUNDUP
NATIONAL WEATHER SERVICE JACKSON MS
900 AM CDT THU SEP 18 2014

NOTE: "FAIR: INDICATES FEW OR NO CLOUDS BELOW 12,000 FEET WITH NO
SIGNIFICANT WEATHER AND/OR OBSTRUCTIONS TO VISIBILITY.

MSZ001>002-007>008-010>013-018>021-025>028-034>036-181500-
NORTHWEST MISSISSIPPI

CITY           SKY/WX    TMP DP  RH WIND       PRES   REMARKS
CLARKSDALE     PTSUNNY   72  72 100 CALM      29.96R
CLEVELAND      FAIR      76  71  85 S6        29.94R
GREENWOOD      CLOUDY    76  67  73 S6        29.95R
GREENVILLE     PTSUNNY   78  71  79 S7        29.94R
GRENADA        CLOUDY    73  64  73 E6        29.97R
OLIVE BRANCH   CLOUDY    64  64 100 E5        29.99R
OXFORD         FAIR      68  64  88 SE5       29.99R
TUNICA         CLOUDY    70  68  94 SE3       29.96S
$$

MSZ003>006-009-014>017-022>024-029>033-037>039-181500-
NORTHEAST MISSISSIPPI

CITY           SKY/WX    TMP DP  RH WIND       PRES   REMARKS
COLUMBUS AFB   PTSUNNY   70  61  72 SE5       29.98R
CORINTH        PTSUNNY   70  61  73 CALM      29.99R
GOLDN TRIANGLE SUNNY     72  61  68 CALM      29.99R
STARKVILLE     FAIR      72  63  73 E3        29.97S
TUPELO         CLOUDY    69  59  70 E5        29.98R
$$

MSZ040-058-181500-
CENTRAL MISSISSIPPI

CITY           SKY/WX    TMP DP  RH WIND       PRES   REMARKS
JACKSON INTL   PTSUNNY   78  68  71 SE5       29.95R
JACKSON HAWKNS MOSUNNY   78  68  71 S7        29.96R
MERIDIAN KEY   MOSUNNY   76  64  66 CALM      29.97R
MERIDIAN NAS   MOSUNNY   74  66  76 SE3       29.97R
RAYMOND        LGT RAIN  77  72  83 CALM      29.95R
VICKSBURG      PTSUNNY   80  73  79 CALM      29.94S
$$

MSZ059>079-181500-
SOUTH MISSISSIPPI

CITY           SKY/WX    TMP DP  RH WIND       PRES   REMARKS
BROOKHAVEN     DRIZZLE   73  73 100 CALM      29.98R
COLUMBIA       FAIR      75  72  88 CALM      29.95R
HATTIESBURG    CLOUDY    76  70  82 CALM      29.96R
MCCOMB         CLOUDY    76  73  91 CALM      29.96R
NATCHEZ        CLOUDY    73  72  94 CALM      29.96R
PINE BELT      CLOUDY    75  61  60 SE3       29.97S
$$

MSZ080>082-181500-
COASTAL MISSISSIPPI

CITY           SKY/WX    TMP DP  RH WIND       PRES   REMARKS
BAY ST LOUIS   MOSUNNY   79  72  78 CALM      29.94R
BILOXI         PTSUNNY   79  74  83 NE3       29.94R
PASCAGOULA     MOSUNNY   80  74  81 CALM      29.94R
GULFPORT       PTSUNNY   80  74  81 NE3       29.93S
$$



USA.gov is the U.S. government's official web portal to all federal, state and local government web resources and services.